Vorticity
nan nan nan nan nan nan nan nan nan nan nan nan nan nan nan nan nan nan nan nan nan nan nan nan nan nan nan nan nan nan nan nan nan nan nan nan nan nan nan nan nan nan nan nan nan nan nan
nan 8 7 8 8 7 5 18 22 12 8 8 12 12 9 7 6 7 8 6 6 6 6 6 8 8 7 4 9 9 8 9 11 9 10 6 6 4 7 9 7 6 7 8 7 10 nan
nan 6 7 7 7 7 8 5 17 20 13 8 11 13 8 7 7 7 7 6 6 7 7 7 7 7 7 8 5 4 9 9 7 7 7 9 7 5 6 7 8 7 8 13 12 10 nan
nan 7 8 8 8 8 9 8 4 15 21 15 10 11 10 8 8 8 7 6 9 8 6 7 7 9 5 9 7 5 9 7 9 8 7 10 9 5 3 6 8 11 8 9 14 10 nan
nan 7 7 7 8 9 8 10 6 6 19 22 13 10 11 10 7 7 8 8 10 8 6 7 6 7 7 10 13 11 8 9 11 10 8 7 9 9 11 8 7 8 6 5 9 12 nan
nan 8 7 7 7 8 9 8 8 8 7 22 21 11 13 12 8 7 9 10 5 4 6 7 8 7 13 10 9 13 10 8 8 9 9 10 6 7 7 9 7 4 9 8 7 4 nan
nan 6 9 10 7 7 9 9 8 9 9 8 21 22 16 11 8 5 5 6 6 8 10 6 4 2 7 11 9 9 10 7 7 9 10 7 7 9 6 2 3 4 4 2 5 5 nan
nan 7 8 11 8 6 9 10 10 9 10 8 19 23 15 13 11 5 -0 6 7 8 13 10 7 5 2 9 9 10 10 7 8 5 4 7 12 9 9 7 6 4 4 4 5 8 nan
nan 7 9 10 10 8 9 11 10 10 11 14 9 16 24 18 7 6 4 5 6 7 11 15 13 10 11 8 6 10 6 5 8 8 7 2 8 8 2 6 11 6 13 9 3 8 nan
nan 7 8 10 10 9 7 10 16 11 7 15 12 14 29 20 3 3 9 9 6 7 11 15 10 11 11 7 15 16 3 1 8 10 8 9 10 4 4 12 11 9 15 12 9 7 nan
nan 8 8 9 10 10 11 12 11 9 6 3 16 17 21 20 0 8 13 10 4 5 8 14 7 10 14 5 8 13 13 9 10 7 5 10 16 17 10 7 5 13 11 11 11 6 nan
nan 7 9 7 10 11 10 11 13 11 0 3 18 9 13 19 5 16 15 3 3 8 13 9 7 10 6 7 5 10 13 6 11 15 4 6 5 13 16 13 3 7 9 7 11 12 nan
nan 8 8 9 10 10 11 9 11 5 7 18 25 13 16 14 13 13 3 0 8 6 14 12 8 10 8 10 8 6 8 9 4 11 10 11 7 5 12 16 17 6 4 10 11 9 nan
nan 10 10 9 8 11 8 8 8 16 32 32 16 11 20 16 19 6 -2 2 8 9 9 9 13 10 9 6 10 8 5 9 8 4 9 11 16 15 4 8 18 16 -1 1 8 9 nan
nan 10 9 10 10 11 8 9 6 29 39 22 13 15 20 19 9 5 2 5 9 9 13 9 5 8 9 7 10 11 8 11 17 9 2 6 10 14 10 12 6 11 15 3 3 10 nan
nan 10 9 8 10 9 8 11 16 27 23 14 10 13 26 17 4 3 3 7 9 10 10 11 9 8 7 13 8 8 8 10 14 15 8 2 10 10 15 9 6 7 8 14 10 8 nan
nan 11 9 8 9 9 9 10 21 19 16 20 14 12 21 8 3 5 7 10 11 9 8 10 10 8 8 12 9 6 5 10 15 19 8 -0 8 8 12 15 9 4 0 2 10 10 nan
nan 11 10 9 10 9 9 8 16 17 26 18 9 16 15 5 2 7 12 10 10 8 6 9 11 10 12 8 6 8 9 11 14 12 10 6 7 12 7 8 13 11 9 3 -0 8 nan
nan 12 11 9 11 10 8 10 9 14 22 14 11 17 11 3 5 12 10 7 9 9 10 7 8 10 10 5 9 10 8 14 13 6 8 9 3 8 14 14 13 11 14 9 -4 5 nan
nan 12 11 10 10 10 7 9 10 13 15 23 15 10 10 9 13 12 6 9 7 6 9 7 10 11 8 8 5 6 9 14 15 5 9 5 5 10 2 2 14 17 13 9 4 -0 nan
nan 13 11 10 10 9 8 10 10 11 22 28 13 11 11 13 15 11 7 9 8 8 10 7 9 12 5 9 11 9 8 10 13 16 10 4 8 13 5 3 3 12 16 14 10 3 nan
nan 12 12 10 10 9 8 9 10 8 29 30 12 8 13 18 14 8 8 9 8 8 7 6 10 13 7 3 4 5 12 10 8 12 6 4 8 10 15 30 23 9 15 15 10 8 nan
nan 10 12 11 10 8 8 9 10 13 27 20 9 10 17 15 6 5 10 12 9 6 8 12 10 4 15 17 9 4 4 7 14 13 7 4 8 9 14 22 22 18 23 14 9 11 nan
nan 11 12 11 9 9 8 8 9 13 24 23 10 10 11 15 12 9 8 8 10 5 5 11 14 9 7 11 19 20 12 13 14 12 10 6 7 8 9 7 6 14 25 23 12 6 nan
nan 11 12 10 10 9 8 7 9 12 21 24 14 12 10 15 13 13 8 11 8 10 14 12 11 11 8 8 12 11 11 17 14 14 12 4 4 7 12 13 13 15 18 16 15 9 nan
nan 12 12 10 9 9 8 8 9 11 20 26 15 10 11 14 11 14 12 6 12 12 14 15 12 12 9 11 12 11 7 8 11 14 14 10 7 7 9 11 9 11 15 17 7 17 nan
nan 12 11 11 9 9 8 8 10 11 19 25 13 9 13 10 12 11 13 11 10 10 10 10 9 13 13 10 9 10 10 9 12 11 9 10 13 9 8 10 10 13 10 11 7 10 nan
nan 11 12 12 9 9 9 9 9 9 18 23 16 11 10 10 10 10 11 8 9 10 11 9 11 12 11 12 9 10 12 10 9 11 13 10 9 10 9 6 10 12 13 8 6 12 nan
nan nan nan nan nan nan nan nan nan nan nan nan nan nan nan nan nan nan nan nan nan nan nan nan nan nan nan nan nan nan nan nan nan nan nan nan nan nan nan nan nan nan nan nan nan nan nan
CAPE
15 10 7 15 13 13 29 126 127 95 59 113 135 64 31 12 7 27 9 3 0 1 0 0 0 4 1 0 0 0 0 0 0 7 2 1 0 0 0 0 0 0 0 0 0 0 0
26 22 20 13 16 20 17 12 139 127 89 66 112 90 70 38 21 35 20 7 0 0 0 0 0 11 0 0 0 0 0 0 0 4 6 12 0 0 2 0 0 0 0 0 0 0 0
11 21 22 19 16 14 14 11 23 95 93 68 149 116 90 72 30 19 30 21 14 1 1 0 0 1 2 0 0 0 0 0 0 0 0 6 16 30 14 16 0 0 0 0 0 0 0
23 23 32 32 24 21 28 21 28 15 94 105 93 112 79 81 61 28 30 33 50 25 11 1 9 3 0 0 0 0 0 0 0 0 0 0 31 33 43 5 1 2 0 0 0 0 0
24 27 29 29 37 56 36 36 11 27 17 116 119 115 151 96 74 61 67 65 51 33 29 30 0 0 0 0 0 0 0 0 0 0 0 1 0 0 2 32 25 7 1 0 0 0 0
24 17 19 30 37 44 57 56 41 14 11 27 116 102 92 93 81 76 90 70 52 13 7 24 14 1 0 0 0 0 0 0 0 0 0 0 0 0 9 31 1 0 0 0 0 0 0
43 33 41 26 44 45 55 47 70 47 19 23 38 99 97 107 91 92 48 0 0 3 6 0 2 0 0 0 0 0 0 0 0 0 0 0 0 0 0 0 1 0 0 0 0 0 0
52 39 55 50 41 74 53 60 52 56 45 19 17 93 95 117 118 108 0 0 0 0 0 0 0 0 0 0 0 0 0 0 0 0 0 0 1 0 0 0 0 0 9 7 0 0 0
89 85 75 90 59 54 84 72 39 61 55 24 22 19 79 123 119 42 1 0 0 0 0 0 0 1 0 0 1 1 0 0 0 0 0 0 0 0 0 0 0 0 2 2 0 0 0
69 82 86 87 69 102 92 63 115 76 92 54 40 8 87 129 53 1 7 0 0 1 0 0 1 2 8 27 12 0 0 0 1 1 0 3 0 0 0 0 0 0 1 0 0 11 1
82 87 112 79 98 102 124 120 136 117 93 24 18 13 66 44 0 1 0 0 1 0 0 0 12 0 14 9 0 0 0 10 6 0 0 0 0 0 0 0 0 1 0 4 13 10 1
112 102 132 165 127 112 104 162 136 139 69 14 8 36 22 0 0 0 0 0 31 0 0 1 2 7 17 13 12 2 0 30 11 19 4 0 0 0 0 0 0 8 1 3 11 11 4
103 126 134 184 146 184 138 116 104 55 76 64 17 45 13 0 0 0 0 1 1 0 0 3 1 4 0 4 10 10 3 10 14 4 0 9 11 5 0 0 0 13 29 8 17 13 0
114 126 135 150 129 112 86 58 25 54 156 101 36 3 12 0 0 0 0 0 0 0 0 0 0 1 0 0 5 14 17 6 31 15 13 0 2 11 0 0 0 1 3 2 0 0 0
117 141 146 125 104 76 98 80 66 213 79 81 47 12 70 7 0 1 4 0 0 0 0 0 2 7 4 4 6 11 17 1 3 2 5 0 0 0 0 0 0 16 11 0 6 0 5
112 131 139 104 89 63 73 77 101 133 86 85 16 11 32 3 1 13 2 0 0 0 0 0 0 0 0 2 7 7 1 0 1 0 2 0 1 0 0 0 3 3 0 14 10 3 0
112 124 142 100 57 50 54 89 87 63 60 42 24 28 72 1 5 12 0 0 0 0 0 0 0 1 0 0 2 0 0 0 0 0 1 13 3 0 1 13 2 16 15 7 0 0 10
110 122 118 85 37 47 51 96 88 84 76 40 38 4 37 8 17 0 13 0 0 0 0 0 0 0 8 0 0 0 0 0 0 0 3 2 1 0 0 0 0 0 0 2 8 0 0
113 120 107 84 60 92 71 76 87 54 70 27 46 30 37 9 1 6 12 0 0 2 0 3 3 8 4 10 0 0 0 0 0 0 0 0 15 0 18 0 7 24 0 1 0 12 0
110 122 125 89 69 79 79 78 69 48 45 31 32 2 34 26 7 0 4 8 6 1 3 4 12 11 12 1 1 0 0 0 0 0 1 0 13 8 0 5 2 14 10 3 6 8 0
107 112 110 95 64 48 59 79 71 14 19 25 11 10 5 2 6 0 0 9 8 13 2 6 14 9 13 10 0 0 0 0 0 6 12 4 5 3 2 3 7 8 6 10 9 0 1
98 97 104 84 46 33 55 59 47 10 29 33 26 7 1 4 3 1 6 11 5 1 4 7 11 4 3 11 0 0 0 0 0 0 14 14 1 3 1 3 8 29 13 0 3 4 0
94 107 104 85 62 19 37 86 61 41 52 7 1 0 0 9 7 8 4 3 0 12 5 3 0 4 9 3 1 0 0 0 0 0 8 6 7 10 7 7 11 22 5 0 0 0 4
103 98 104 59 56 18 25 52 72 43 40 15 4 0 3 4 9 6 7 1 0 0 3 1 1 5 1 0 0 0 0 0 0 0 0 2 8 11 6 6 0 0 1 0 0 1 0
110 106 103 63 23 20 18 24 67 36 33 6 0 0 0 10 3 0 1 2 0 0 0 0 5 6 2 1 14 26 0 1 0 0 0 0 0 2 6 0 0 0 0 4 2 0 0
100 101 86 71 18 20 21 10 44 34 25 4 1 0 0 0 12 1 0 5 0 0 0 0 0 0 0 9 30 10 0 0 0 0 0 0 0 1 0 0 0 0 0 0 0 0 0
100 101 83 81 19 26 21 4 51 33 29 8 3 0 0 0 0 0 0 0 0 0 0 0 1 9 7 17 24 17 0 0 0 0 1 2 3 2 0 0 0 0 0 0 0 0 0
90 99 78 75 46 20 16 5 40 35 27 14 3 0 0 0 0 0 0 0 0 0 0 0 6 12 17 22 14 6 0 0 0 0 0 1 0 0 1 0 0 0 0 0 0 0 0
88 91 84 71 52 24 15 12 26 34 23 15 3 0 0 0 1 0 0 0 0 0 0 0 2 12 11 1 0 1 18 0 0 0 0 0 0 0 0 0 0 0 0 0 0 0 0